Theta_e
328 324 326 326 324 326 329 332 336 337 339 338 339 338 339 336 338 339 337 339 337 338 336 336 337 337 333 327 328 327 329 330 330 325 320 320 321 325 326 326 326 326 327 327
325 326 327 325 326 330 333 335 339 338 336 338 339 339 337 334 336 338 335 338 338 338 335 335 336 336 332 330 328 328 329 333 333 329 318 320 325 325 325 327 326 326 327 327
327 327 327 326 326 327 332 334 337 337 337 336 338 339 336 336 337 337 337 338 338 336 336 331 336 336 335 331 329 329 331 334 332 330 319 322 321 323 325 327 328 327 327 325
326 327 326 326 327 325 326 329 334 337 333 338 335 338 339 337 337 337 337 336 338 336 337 332 335 333 332 336 332 331 332 334 333 332 323 324 321 326 328 329 327 327 326 325
327 326 327 328 328 327 326 333 333 334 336 334 338 338 337 337 337 338 336 334 335 337 338 333 336 335 332 335 337 333 333 334 335 332 325 326 324 326 328 329 328 327 325 325
325 328 328 328 327 327 331 331 328 329 329 336 336 337 336 337 337 339 336 335 336 336 339 338 338 336 335 335 338 335 336 336 336 331 328 327 327 325 329 329 329 327 326 324
325 326 326 328 330 326 327 327 330 331 335 337 333 335 333 332 336 336 335 337 336 336 339 341 339 337 331 335 339 339 339 337 334 330 331 329 328 328 329 329 328 327 327 325
326 327 328 330 332 332 332 328 328 333 335 337 335 339 336 335 335 336 336 336 337 337 336 340 340 339 330 334 337 338 336 334 334 334 332 331 328 329 323 324 327 329 329 327
326 328 326 332 332 331 332 332 327 332 330 334 336 337 334 335 335 335 335 336 335 336 336 336 340 338 337 335 336 336 333 335 335 332 331 332 329 329 329 327 330 329 330 329
326 327 328 331 331 330 331 328 329 327 336 341 338 339 336 335 336 334 336 337 336 338 338 337 339 339 339 335 336 338 336 333 334 336 330 328 332 335 332 332 329 329 328 328
324 324 325 329 329 331 328 329 330 327 330 338 339 337 332 332 331 334 334 335 335 336 336 335 337 338 339 338 335 339 339 336 336 337 337 334 333 330 333 332 330 331 330 329
325 323 327 330 329 330 332 333 327 327 334 332 334 335 331 333 335 336 336 336 335 335 335 335 337 339 340 338 339 339 337 337 337 338 336 336 334 330 328 328 329 329 330 328
328 328 334 330 329 329 332 332 328 325 326 334 335 336 334 334 334 334 334 335 335 335 333 335 337 339 338 338 339 340 338 335 336 337 331 333 333 332 331 329 329 330 326 325
333 330 330 331 332 330 333 332 329 327 328 333 335 336 334 334 334 335 334 336 335 337 336 336 336 336 336 337 336 337 339 331 329 330 332 333 331 331 330 326 326 326 325 326
330 334 334 332 333 333 331 331 331 333 331 338 337 337 335 332 334 336 335 336 337 337 336 335 336 335 335 337 336 337 335 330 330 330 333 331 329 333 329 327 326 326 327 328
328 330 331 332 334 332 334 335 333 331 334 336 336 338 334 336 336 334 336 336 334 335 334 334 334 333 337 336 335 336 336 334 332 327 330 329 329 333 332 328 328 327 328 327
333 332 331 333 335 333 334 335 334 338 339 336 340 336 334 334 334 335 336 334 333 334 335 335 334 338 337 336 336 335 334 332 329 328 330 330 329 330 331 330 329 328 326 326
333 332 330 331 331 334 330 332 333 341 341 337 336 335 334 334 335 335 334 333 334 335 335 335 337 337 337 334 333 336 333 332 329 328 328 330 330 328 327 326 326 326 326 325
328 330 332 333 330 331 335 336 335 342 343 338 335 334 334 333 333 333 334 333 335 335 336 337 337 337 336 335 334 334 332 328 327 328 330 329 325 325 321 319 320 321 321 320
329 329 331 329 331 332 332 335 334 334 335 334 334 333 334 332 330 328 333 335 335 336 337 337 337 335 332 334 333 333 332 329 329 325 323 324 322 321 319 318 312 315 318 317
330 332 332 328 331 330 334 333 334 336 334 338 334 333 333 330 332 333 335 335 336 337 336 335 335 332 332 333 334 333 331 330 327 323 321 320 319 317 313 311 313 315 315 314
329 333 333 332 336 338 337 335 337 335 336 337 335 334 334 334 333 334 335 335 336 334 331 331 333 333 334 334 333 332 331 326 324 322 320 319 315 315 316 316 316 315 317 316
334 329 332 334 334 332 335 333 338 340 339 336 335 334 334 333 333 335 336 336 334 333 333 335 334 333 334 334 330 328 325 322 320 319 318 316 314 315 317 317 316 316 316 317
331 331 332 335 334 334 337 334 340 339 337 335 334 335 333 334 334 335 335 334 334 333 334 334 331 329 330 331 330 327 325 321 320 319 317 312 312 312 315 313 316 317 316 317
332 333 331 332 332 334 335 339 339 336 336 335 335 334 334 335 335 335 333 333 333 333 333 329 324 325 326 326 325 326 324 323 315 314 314 312 309 309 309 312 313 316 316 317
331 330 331 333 334 332 336 338 337 337 336 336 335 335 335 335 335 333 333 332 333 334 334 325 325 327 326 326 326 327 325 316 317 316 313 311 312 315 316 317 317 316 316 316
Wind_Speed
5 6 5 8 6 7 3 4 5 2 1 6 5 2 7 21 18 16 14 13 15 21 18 19 17 17 26 27 28 24 18 12 11 12 13 12 10 9 7 5 6 6 6 8
6 2 4 8 5 4 3 9 3 2 1 4 5 4 5 10 6 11 18 12 17 22 12 16 14 12 20 25 28 24 17 13 12 12 13 12 11 9 8 8 7 9 8 7
3 7 6 4 7 6 1 5 7 6 4 5 5 5 6 4 11 19 17 10 12 12 6 6 4 5 10 21 26 23 18 14 13 12 15 14 13 12 9 8 8 5 5 5
4 4 3 7 3 4 2 5 7 14 4 4 3 2 4 4 7 8 17 8 13 6 5 5 1 5 9 11 22 21 19 17 14 15 16 15 14 11 9 8 5 6 5 4
6 6 8 6 6 2 5 8 7 5 5 5 1 4 7 2 7 10 15 15 13 13 10 7 3 6 9 3 15 20 20 19 17 17 17 16 15 13 11 9 7 7 7 8
6 5 3 5 7 2 10 7 6 4 3 4 4 3 6 3 6 6 11 15 17 16 10 9 6 5 6 3 11 17 19 18 18 18 18 19 16 13 11 10 10 9 9 8
7 4 5 3 6 8 10 5 3 3 5 3 4 2 7 6 9 10 11 19 20 14 12 14 12 3 6 5 8 13 16 16 15 18 19 19 18 16 14 12 12 10 9 8
1 7 1 5 2 2 2 2 5 4 4 4 3 3 6 5 12 16 18 22 26 24 18 22 19 12 8 6 7 9 10 12 14 15 15 17 19 19 15 14 14 12 12 8
4 5 4 3 1 3 1 3 4 6 3 3 3 6 10 5 8 17 24 26 27 24 23 24 26 21 16 10 9 7 11 11 13 13 13 15 18 18 17 14 13 12 12 11
5 2 3 4 1 5 2 4 2 3 4 2 4 4 6 6 9 9 14 23 25 22 23 30 31 27 23 18 14 12 14 17 16 15 12 12 15 16 14 16 15 11 9 9
5 3 5 3 3 2 3 3 6 5 3 4 2 6 6 7 7 9 15 21 20 15 24 22 27 27 25 21 21 20 20 20 20 16 16 13 12 15 15 15 15 13 11 11
4 5 1 1 7 2 3 5 5 4 2 2 4 5 4 5 4 8 20 20 19 20 24 22 24 25 27 28 28 29 30 20 28 16 12 12 13 11 7 10 14 14 13 10
5 3 3 8 6 5 3 1 4 5 4 3 5 5 5 7 12 18 17 21 16 13 15 16 17 23 28 30 36 28 17 34 12 17 16 19 19 12 10 9 12 12 8 7
5 3 6 6 6 3 3 6 4 4 4 5 4 3 4 5 5 15 18 17 13 11 11 10 12 15 18 22 22 20 21 14 17 16 22 16 18 14 10 7 7 8 6 10
5 3 1 2 1 2 3 1 5 4 4 4 4 2 4 4 4 6 7 10 11 11 13 15 15 19 25 22 12 11 7 7 9 11 14 16 13 15 15 13 10 11 13 13
4 3 3 2 3 4 3 3 1 2 3 6 7 2 2 4 2 3 7 8 11 14 15 17 18 23 23 16 14 13 14 14 12 7 10 17 19 17 17 16 16 14 14 14
3 3 3 2 3 4 3 5 2 2 2 7 5 4 2 1 2 3 4 9 12 12 14 16 17 15 11 14 11 12 8 6 7 9 15 14 12 13 14 15 17 14 14 14
4 3 2 2 4 2 5 3 2 2 4 5 7 5 6 8 5 2 4 10 12 10 13 14 11 12 14 15 13 7 9 11 10 12 8 4 4 4 4 6 7 8 10 10
3 4 2 3 2 5 0 3 5 4 4 4 8 8 10 6 3 3 7 9 8 10 11 12 10 13 15 15 6 8 12 8 8 10 7 10 13 4 6 6 7 8 9 11
5 6 4 2 3 5 5 3 3 4 3 12 11 11 9 6 2 4 8 7 10 10 12 13 10 13 15 11 10 11 15 11 10 9 9 6 2 5 11 10 11 10 11 13
2 2 5 3 3 6 6 12 8 4 7 18 15 12 12 5 3 2 3 7 8 8 10 12 13 15 9 10 10 11 10 6 8 6 3 0 2 7 6 10 9 9 10 13
7 6 3 3 2 7 8 7 7 6 6 16 12 9 7 4 3 2 4 5 6 8 11 11 14 13 8 9 8 9 3 3 4 3 2 4 7 9 10 12 12 10 10 11
2 5 4 7 6 3 19 5 14 8 16 15 11 9 8 8 4 2 1 2 4 7 8 9 12 12 10 6 8 3 2 4 4 4 6 11 12 11 11 13 12 12 13 16
2 2 3 2 4 4 9 13 10 13 13 12 11 13 11 7 5 4 2 0 4 8 9 9 10 8 8 7 8 4 5 7 9 10 12 12 13 12 13 15 13 15 15 17
2 2 2 3 8 7 6 14 17 18 13 13 14 14 10 9 8 4 3 6 6 7 8 8 7 8 8 8 8 5 5 10 9 11 15 16 16 14 12 11 12 14 16 19
8 6 5 5 11 7 10 17 18 17 16 14 19 15 14 10 6 5 4 5 5 6 7 6 7 9 12 10 7 5 7 8 11 16 15 14 13 12 11 12 14 12 16 18
Wind_Direction
356 42 352 299 248 202 235 124 110 285 349 56 358 90 322 325 332 334 336 316 333 337 338 347 344 276 241 227 219 215 213 222 243 240 230 230 227 217 220 242 254 283 292 312
6 322 260 278 28 83 116 112 115 6 65 86 340 338 278 2 322 292 308 311 329 322 327 344 338 312 251 235 218 216 218 241 258 245 231 225 221 226 234 242 260 262 273 301
160 261 317 35 349 71 265 154 181 151 119 67 134 311 349 343 339 309 288 284 320 338 332 333 357 313 268 238 224 223 231 243 249 246 224 224 231 230 238 254 268 264 273 291
236 290 326 342 282 148 306 202 149 138 111 167 174 247 296 281 313 295 267 298 9 341 277 260 161 26 341 273 236 226 234 248 247 243 224 226 225 229 241 247 261 251 242 241
262 306 327 332 260 167 209 94 104 168 112 105 347 75 272 23 277 278 285 314 320 338 261 254 185 24 9 288 243 235 239 245 250 237 223 225 225 233 235 235 234 244 235 248
232 279 231 233 286 249 143 89 76 53 81 59 303 116 284 280 246 287 304 305 313 330 262 248 220 353 338 271 230 233 244 251 252 226 227 227 231 232 234 234 239 243 245 269
326 295 289 275 355 76 39 76 11 1 29 218 279 80 241 250 244 243 279 305 301 296 275 257 245 270 303 267 234 238 247 254 233 225 233 233 235 238 239 243 250 243 248 271
217 335 6 323 182 227 74 173 148 212 164 209 331 237 251 269 291 266 273 286 290 269 273 266 252 244 270 233 231 242 247 239 225 228 235 232 235 241 241 236 236 244 252 262
172 271 306 226 185 143 261 43 162 107 39 84 261 284 312 221 292 277 278 284 276 263 264 264 249 249 250 242 252 239 233 229 224 226 219 229 234 235 237 240 245 255 251 261
209 292 245 289 70 32 121 140 61 25 139 156 291 267 240 299 277 286 275 279 273 275 274 267 247 246 248 242 227 222 238 233 228 211 216 245 246 231 230 243 243 253 251 247
138 116 290 8 2 241 352 26 48 109 113 145 174 266 217 240 263 281 290 296 294 292 305 284 245 251 254 256 241 241 238 244 231 231 223 252 279 250 247 250 244 243 242 246
170 148 173 248 309 251 155 169 145 113 211 122 146 274 263 242 244 288 291 301 291 296 303 275 255 257 262 267 264 254 255 229 261 247 263 267 278 249 268 264 248 250 251 252
184 31 37 351 348 354 22 337 102 108 97 185 137 261 331 319 311 327 324 327 335 342 343 316 271 277 282 288 278 272 286 13 294 296 275 271 274 252 253 267 253 241 235 232
94 98 153 170 212 209 1 326 161 127 117 174 213 264 333 2 354 360 25 34 55 37 20 1 347 359 351 331 300 270 275 293 274 239 256 253 261 264 244 243 239 213 214 248
94 136 195 167 279 104 128 335 338 131 168 131 189 102 333 8 41 346 20 31 46 33 13 359 353 352 349 342 316 288 283 342 316 273 228 233 239 254 236 223 224 234 239 252
6 174 180 182 357 156 94 313 47 47 107 80 112 92 348 45 90 38 48 32 18 4 0 347 351 352 354 21 359 320 314 330 304 280 276 253 254 248 246 244 242 256 257 268
81 111 76 272 332 86 332 248 257 272 84 136 140 193 139 35 97 45 35 13 359 355 354 354 354 356 2 359 358 334 323 357 322 274 282 275 267 260 254 261 264 264 270 277
122 99 83 217 33 342 256 279 279 130 85 122 111 155 193 198 230 42 27 5 353 355 355 2 353 347 342 352 350 8 10 349 330 333 302 245 254 233 304 311 297 289 281 276
115 121 91 124 168 283 142 206 186 155 216 199 150 170 176 165 107 21 1 347 347 352 358 2 357 347 348 345 360 358 348 15 40 22 244 281 305 337 37 7 322 290 289 301
66 77 108 94 158 227 244 180 161 78 274 200 178 180 147 137 72 258 347 3 348 351 2 6 359 356 356 2 348 348 347 7 9 354 341 346 41 10 346 336 335 312 307 304
64 29 174 144 215 285 222 175 149 146 237 174 188 164 160 170 174 332 43 13 2 3 13 5 360 5 11 5 346 342 355 1 345 352 16 356 341 330 344 329 324 316 310 313
180 152 197 108 133 266 156 136 173 210 170 173 187 179 148 142 124 92 6 4 6 4 9 17 13 12 10 356 349 348 5 337 332 347 352 321 315 311 313 328 330 319 320 324
229 181 188 176 215 219 196 234 216 233 180 182 196 190 179 166 184 224 102 35 356 1 3 5 2 359 2 350 348 1 14 345 313 327 327 322 317 309 302 311 310 307 310 307
304 152 143 97 247 262 227 214 216 189 193 193 203 194 183 204 216 223 199 345 355 355 346 350 356 12 12 352 349 341 340 344 333 323 324 327 323 315 308 307 304 306 312 313
212 43 134 273 283 298 209 193 192 188 203 203 191 188 200 214 196 229 295 312 329 344 346 351 3 9 1 352 346 329 318 332 337 338 336 331 325 324 322 325 320 312 316 318
192 183 163 226 229 201 217 210 196 206 218 235 200 192 196 206 232 226 256 296 313 336 350 356 5 5 8 342 323 311 320 337 344 344 342 342 336 335 331 325 321 315 318 317